Location: La Pernelle
(49.6188°N, 1.2999°W)
Time: 07:08:39
(UTC+00:00)

Cosmos 1626 - Pass Details

Date: 26 October 2021
Orbit: 487 x 492 km, 82.5° (Epoch: 01 December)

Event Time Altitude Azimuth Distance (km) Brightness Sun altitude
Exits shadow 04:33:46 71° 176° (S) 527 2.1 -21.7°
Maximum altitude 04:34:08 86° 102° (ESE) 502 2.0 -21.6°
Drops below altitude 10° 04:37:52 10° 11° (N) 1,701 5.0 -21.0°
Sets 04:39:59 0° 11° (N) 2,589 6.0 -20.7°
